Probability
0 0 0 0 0 0 0 0 0 0 0 0 0 0 0 0 0 0 0 0 0 0 0 0 0 0 0 0 0 0 0 0 0 0 0 0 0 0 0 0 0 0 0 0
0 0 0 0 0 0 0 0 0 0 0 0 0 0 0 0 0 0 0 0 0 0 0 0 0 0 0 0 0 0 0 0 0 0 0 0 0 0 0 0 0 0 0 0
0 0 0 0 0 0 0 0 0 0 0 0 0 0 0 0 0 0 0 0 0 0 0 0 0 0 0 0 0 0 0 0 0 0 0 0 0 0 0 0 0 0 0 0
0 0 0 0 0 0 0 0 0 0 0 0 0 0 0 0 0 0 0 0 0 0 0 0 0 0 0 0 0 0 0 0 0 0 0 0 0 0 0 0 0 0 0 0
0 0 0 0 0 0 0 0 0 0 0 0 0 0 0 0 0 0 0 0 0 0 0 0 0 0 0 0 0 0 0 0 0 0 0 0 0 0 0 0 0 0 0 0
0 0 0 0 0 0 0 0 0 0 0 0 0 0 0 0 0 0 0 0 0 0 0 0 0 0 0 0 0 0 0 0 0 0 0 0 0 0 0 0 0 0 0 0
0 0 0 0 0 0 0 0 0 0 0 0 0 0 0 0 0 0 0 0 0 0 0 0 0 0 0 0 0 0 0 0 0 0 0 0 0 0 0 0 0 0 0 0
0 0 0 0 0 0 0 0 0 0 0 0 0 0 0 0 0 0 0 0 0 0 0 0 0 0 0 0 0 0 0 0 0 0 0 0 0 0 0 0 0 0 0 0
0 0 0 0 0 0 0 0 0 0 0 0 0 0 0 0 0 0 0 0 0 0 0 0 0 0 0 0 0 0 0 0 0 0 0 0 0 0 0 0 0 0 0 0
0 0 0 0 0 0 0 0 0 0 0 0 0 0 0 0 0 0 0 0 0 0 0 0 0 0 0 0 0 0 0 0 0 0 0 0 0 0 0 0 0 0 0 0
0 0 0 0 0 0 0 0 0 0 0 0 0 0 0 0 0 0 0 0 0 0 0 0 0 0 0 0 0 0 0 0 0 0 0 0 0 0 0 0 0 0 0 0
0 0 0 0 0 0 0 0 0 0 0 0 0 0 0 0 0 0 0 0 0 0 0 0 0 0 0 0 0 0 0 0 0 0 0 0 0 0 0 0 0 0 0 0
0 0 0 0 0 0 0 0 0 0 0 0 0 0 0 0 0 0 0 0 0 0 0 0 0 0 0 0 0 0 0 0 0 0 0 0 0 0 0 0 0 0 0 0
0 0 0 0 0 0 0 0 0 0 0 0 0 0 0 0 0 0 0 0 0 0 0 0 0 0 0 0 0 0 0 0 0 0 0 0 0 0 0 0 0 0 0 0
0 0 0 0 0 0 0 0 0 0 0 0 0 0 0 0 0 0 0 0 0 0 0 0 0 0 0 0 0 0 0 0 0 0 0 0 0 0 0 0 0 0 0 0
0 0 0 0 0 0 0 0 0 0 0 0 0 0 0 0 0 0 0 0 0 0 0 0 0 0 0 0 0 0 0 0 0 0 0 0 0 0 0 0 0 0 0 0
0 0 0 0 0 0 0 0 0 0 0 0 0 0 0 0 0 0 0 0 0 0 0 0 0 0 0 0 0 0 0 0 0 0 0 0 0 0 0 0 0 0 0 0
0 0 0 0 0 0 0 0 0 0 0 0 0 0 0 0 0 0 0 0 0 0 0 0 0 0 0 0 0 0 0 0 0 0 0 0 0 0 0 0 0 0 0 0
0 0 0 0 0 0 0 0 0 0 0 0 0 0 0 0 0 0 0 0 0 0 0 0 0 0 0 0 0 0 0 0 0 0 0 0 0 0 0 0 0 0 0 0
1 2 3 2 2 2 1 1 1 1 0 0 0 0 0 0 0 0 0 0 0 0 0 0 0 0 0 0 0 0 0 0 0 0 0 0 0 0 0 0 0 0 0 0
2 4 4 4 4 6 6 4 4 3 2 2 1 0 0 0 0 0 0 0 0 0 0 0 0 0 0 0 0 0 0 0 0 0 0 0 0 0 0 0 0 0 0 0
1 2 3 3 3 7 9 7 6 6 7 8 6 3 1 1 0 0 0 0 0 0 0 0 0 0 0 0 0 0 0 0 0 0 0 0 0 0 0 0 0 0 0 0
0 0 1 1 1 4 6 6 8 11 16 20 16 10 7 6 3 1 0 0 0 0 0 0 0 0 0 0 0 0 0 0 0 0 0 0 0 0 0 0 0 0 0 0
0 0 0 0 0 1 2 3 9 17 24 27 21 16 14 10 6 2 0 0 0 0 0 0 0 0 0 0 0 0 0 0 0 0 0 0 0 0 0 0 0 0 0 0
0 0 0 0 0 0 0 2 8 15 19 20 20 18 15 9 5 4 2 0 0 0 0 0 0 0 0 0 0 0 0 0 0 0 0 0 0 0 0 0 0 0 0 0
0 0 0 0 0 0 0 1 3 6 8 12 17 19 15 9 6 6 4 1 0 0 0 0 0 0 0 0 0 0 0 0 0 0 0 0 0 0 0 0 0 0 0 0
0 0 0 0 0 0 0 1 2 3 4 8 14 18 17 12 8 6 4 1 0 0 0 0 0 0 0 0 0 0 0 0 0 0 0 0 0 0 0 0 0 0 0 0
Wind_Speed
8 6 6 7 8 6 5 6 8 9 10 9 10 9 8 8 9 9 8 9 9 9 8 7 8 8 9 9 9 9 10 11 11 10 10 10 9 9 9 10 12 10 10 10
11 10 7 9 8 5 4 6 7 9 9 10 10 10 9 9 9 8 9 10 11 11 10 9 9 9 9 9 9 8 10 11 11 11 11 11 10 10 10 10 10 10 11 12
11 10 10 9 4 2 4 6 7 9 8 9 10 10 9 9 8 8 10 11 11 11 10 9 9 8 9 9 10 10 10 11 11 11 12 12 13 13 12 11 11 11 12 12
11 13 13 5 3 2 3 5 7 7 6 9 9 8 7 6 7 8 10 10 11 11 11 10 10 9 8 10 10 11 11 11 12 12 13 12 12 12 11 10 10 11 11 12
9 12 11 2 3 3 2 7 5 4 7 9 10 10 5 7 7 7 9 9 9 10 12 11 10 9 10 11 11 11 12 12 12 13 14 13 13 13 11 10 11 11 11 11
9 13 15 13 8 7 2 2 8 6 7 9 10 9 6 8 8 8 9 9 9 10 11 10 9 9 11 11 11 12 12 13 13 13 13 14 13 12 11 9 11 11 11 10
11 13 10 8 10 1 6 5 3 6 7 7 7 6 7 8 8 7 8 9 9 10 9 9 9 9 10 11 11 11 12 13 14 13 13 13 11 9 9 10 10 10 11 9
10 10 4 8 0 5 5 2 4 5 6 6 5 6 7 7 7 8 9 10 10 9 9 8 8 9 11 11 11 11 12 14 14 14 14 12 11 10 9 9 9 9 8 8
6 6 1 3 5 4 3 3 3 5 5 5 5 6 7 7 7 8 9 9 9 10 10 8 8 8 10 10 10 12 13 14 14 15 13 11 10 10 8 7 7 7 6 6
7 8 8 8 8 5 4 5 4 4 3 4 5 6 6 6 6 7 8 8 9 10 10 10 9 9 9 10 10 12 13 14 13 13 13 11 7 7 7 7 7 7 6 6
12 11 10 10 8 7 6 6 6 4 4 4 4 5 6 5 5 6 7 8 8 9 9 10 10 10 10 10 10 12 13 13 13 12 12 10 8 6 6 4 4 5 6 6
9 8 6 7 8 9 7 7 7 6 6 4 4 5 5 5 5 6 7 8 8 9 10 11 10 10 9 9 10 11 12 12 10 11 10 9 8 7 4 5 5 6 6 6
11 10 10 10 10 8 6 7 8 7 6 5 4 4 4 5 5 6 7 8 9 10 10 10 9 9 9 9 10 11 12 12 10 10 10 9 8 7 6 4 6 8 8 8
11 9 10 10 10 10 9 9 7 7 7 6 5 4 4 5 5 6 7 8 9 9 10 9 9 9 9 10 11 12 12 11 11 9 9 9 8 7 6 6 5 3 5 8
12 11 10 10 9 10 10 9 8 8 8 8 7 5 4 4 5 6 6 7 8 9 9 9 9 9 10 10 11 12 11 9 9 10 10 9 7 7 6 6 5 4 2 3
13 13 11 10 9 9 11 10 9 9 9 8 6 4 3 4 4 5 6 6 8 9 9 9 9 9 10 11 11 10 9 12 12 10 10 8 7 6 5 5 5 4 3 2
10 10 10 11 10 10 10 10 10 10 9 7 6 5 4 4 4 5 5 6 7 8 8 6 7 9 10 10 10 9 9 10 13 11 8 8 7 5 5 5 5 4 3 2
9 11 11 11 11 11 11 11 10 10 8 6 5 5 4 4 4 5 5 6 7 8 5 5 7 10 10 8 8 9 9 9 9 9 8 7 7 6 4 4 5 5 3 2
11 12 13 13 12 11 10 10 8 6 5 5 4 4 4 4 4 4 5 6 8 7 5 7 7 9 8 8 9 8 9 9 9 9 8 8 7 5 4 4 4 4 4 3
14 14 15 15 15 12 9 7 5 3 3 4 5 5 5 5 4 4 5 7 6 3 4 6 8 7 7 9 11 9 8 9 9 9 8 7 7 6 5 4 4 4 4 4
14 15 15 15 15 15 12 10 7 4 4 6 6 6 6 6 5 5 5 7 1 3 4 7 5 5 7 10 12 8 7 8 8 8 8 8 7 7 5 4 4 3 3 3
14 14 15 14 13 13 13 12 9 7 6 6 8 8 8 7 7 6 6 4 1 4 3 5 4 6 9 12 8 7 7 8 7 7 8 8 7 7 5 4 3 3 3 3
13 13 14 14 14 13 14 13 12 9 7 8 9 10 10 7 5 4 5 2 4 4 2 2 3 5 11 8 6 6 7 8 8 8 8 8 8 6 5 5 4 2 2 2
14 15 15 15 15 15 14 14 13 9 9 9 11 11 10 8 7 7 5 6 6 4 1 4 2 4 9 5 5 6 6 7 7 8 8 8 7 7 6 5 5 4 3 3
15 16 16 16 15 14 13 13 12 11 12 10 12 13 12 10 8 6 4 8 9 5 2 6 6 5 6 4 5 6 6 6 7 8 8 8 8 7 6 5 5 4 4 4
14 13 13 13 13 12 13 13 12 11 9 9 9 9 9 8 8 6 4 6 7 6 3 2 2 3 3 4 5 5 6 7 7 7 8 8 8 8 7 7 7 5 5 5
14 13 9 10 10 10 11 11 10 10 9 9 8 6 6 7 7 7 6 5 4 4 2 0 2 3 4 5 5 6 6 6 7 7 8 8 8 8 8 9 7 6 6 6
Wind_Direction
319 318 317 325 324 332 329 327 317 333 331 9 26 2 355 352 352 346 346 344 342 337 331 329 326 324 319 318 317 319 315 311 308 306 303 298 296 295 293 291 291 289 289 286
306 305 283 294 288 275 291 296 303 317 325 21 8 357 352 348 338 335 344 340 335 331 331 327 324 320 321 319 319 318 314 310 308 305 302 300 298 295 292 290 290 289 286 284
306 308 298 301 295 231 314 317 318 313 338 9 351 344 336 329 331 350 344 335 334 334 329 323 318 321 321 319 319 317 313 310 309 308 306 305 305 302 298 296 294 289 284 280
293 301 295 312 106 61 354 328 305 307 7 5 344 342 346 33 25 351 338 338 336 329 324 321 323 323 321 319 317 314 312 312 313 311 308 307 303 299 297 296 292 288 284 282
295 295 300 327 184 151 336 312 325 14 8 346 347 326 76 60 11 351 347 337 328 324 322 322 323 326 324 318 316 314 315 317 316 313 308 305 301 300 299 296 293 288 286 281
275 289 293 302 108 103 331 0 58 25 357 345 336 322 355 15 358 355 341 330 326 325 322 322 330 330 322 317 317 319 321 318 313 309 305 302 299 298 298 297 294 293 290 286
266 277 293 85 109 262 317 56 18 355 351 334 342 324 326 333 344 341 331 329 330 329 324 325 328 327 320 318 320 324 320 314 309 307 304 298 296 297 299 300 299 298 295 291
278 282 308 114 127 332 0 356 329 335 329 331 322 313 318 329 335 334 333 332 334 327 324 325 330 327 321 321 325 323 318 313 311 309 307 305 303 301 301 302 303 303 304 303
308 323 119 220 279 306 307 289 294 302 323 325 311 311 319 326 333 333 330 333 329 327 325 327 331 329 322 325 326 323 318 314 312 310 305 302 302 305 307 306 308 310 314 314
294 288 283 282 292 283 261 256 259 277 291 291 293 305 314 323 327 327 331 329 330 327 325 327 331 331 327 327 327 322 318 315 312 310 307 309 308 308 309 313 318 320 323 326
273 273 272 273 277 276 257 240 236 241 252 262 277 292 306 316 323 328 324 327 327 324 324 326 330 328 330 332 329 322 317 315 314 312 309 308 307 304 302 312 312 301 313 322
299 304 294 293 287 269 245 236 237 236 245 256 268 285 302 312 320 317 320 326 325 326 325 326 326 328 333 335 330 320 315 316 314 311 310 310 311 311 292 280 257 248 257 277
288 285 280 283 284 278 249 240 237 222 219 234 250 268 287 298 306 315 323 327 327 325 324 322 324 330 336 336 326 317 312 312 310 308 309 309 311 314 315 286 246 249 253 257
292 280 271 273 280 282 270 255 241 225 210 213 226 239 263 285 304 316 322 322 323 323 319 324 330 332 336 331 321 315 313 310 308 308 308 307 310 311 307 309 307 283 231 235
297 283 271 267 259 267 267 252 237 227 219 216 215 221 248 279 300 310 315 320 322 319 325 331 327 330 335 327 319 316 314 312 313 311 305 304 307 305 309 319 318 318 306 205
295 291 285 279 271 273 270 255 239 233 231 228 217 216 240 272 291 303 313 322 324 326 326 322 323 333 333 323 318 315 313 312 310 307 305 305 308 315 328 329 325 326 324 316
308 307 307 305 296 282 269 255 242 234 232 228 209 203 219 254 282 298 316 325 324 315 309 320 333 337 325 318 321 317 315 314 312 309 310 314 317 323 327 324 327 333 335 355
335 327 320 311 304 296 287 269 247 232 221 215 205 200 214 243 275 301 313 316 312 304 317 348 351 326 314 324 330 317 311 312 317 319 319 320 321 317 317 323 336 339 328 301
3 351 340 328 316 302 292 286 272 244 206 186 189 204 219 244 263 285 302 308 301 302 352 354 337 307 319 344 339 311 311 317 320 323 323 322 319 319 324 335 339 341 342 341
15 8 359 349 341 333 323 313 300 270 190 174 189 205 219 239 259 278 291 290 291 346 349 337 316 317 335 345 335 311 314 322 327 329 328 331 333 331 339 344 346 350 350 340
9 5 1 357 353 347 340 330 312 276 219 197 201 214 222 229 241 253 267 282 325 78 332 297 286 351 349 333 309 308 323 330 330 331 331 331 332 333 343 341 336 349 352 340
356 353 349 346 344 340 335 324 305 280 241 210 209 217 223 227 232 240 244 248 153 111 304 307 14 17 339 318 307 324 334 335 332 331 330 331 331 334 343 342 335 347 351 339
337 334 330 329 326 320 313 308 299 283 254 223 214 218 223 226 229 239 255 196 144 125 287 357 46 342 321 309 322 339 342 340 335 334 332 330 329 334 344 344 344 353 347 349
320 318 315 312 308 302 295 289 287 280 262 237 225 218 219 224 223 222 218 141 137 146 274 120 151 306 297 303 342 350 346 342 339 335 331 330 332 337 344 346 352 1 350 4
309 308 305 302 297 293 288 282 277 264 258 249 239 228 221 219 223 223 180 154 154 173 209 165 189 253 289 349 1 355 349 350 340 327 328 333 338 342 345 349 354 354 355 10
298 294 294 290 290 288 289 288 285 283 277 267 253 238 225 213 206 190 171 175 172 180 219 197 195 236 341 10 11 5 358 351 343 339 339 337 342 348 348 349 353 4 8 12
288 287 287 292 305 312 317 318 316 314 311 304 291 264 227 204 186 180 184 190 179 183 190 134 39 39 26 20 19 14 11 2 353 346 344 343 346 346 347 349 358 7 15 21